Vertical_Velocity
-4 -2 -7 -3 2 2 -1 -1 -2 -1 -0 -2 -3 -1 1 0 -1 -1 -2 -1 -0 0 -0 -2 -1 0 -0 -0 -1 -1 -2 -0 -2
-2 -4 -1 0 2 4 -7 0 -5 1 -1 -0 -2 -1 0 0 -0 -2 -0 -1 -1 -1 -0 1 1 -1 -0 1 0 1 -0 -1 -2
-2 -0 1 -4 4 7 -6 1 -5 -2 -2 -2 -1 -1 0 -1 -1 -1 -2 -1 -1 -1 -1 -0 1 -0 -1 -1 -0 -0 -0 0 1
-3 -2 1 1 -1 1 -7 0 -1 -2 -3 -3 -1 -3 -0 -1 -2 -1 -2 -1 -1 -1 -1 -0 -1 -0 0 1 1 2 1 1 2
-1 -6 2 -4 -2 1 -4 3 -8 1 -2 -3 -1 -2 0 1 -1 -1 -1 -1 -3 -3 -2 -1 -1 -1 0 1 1 2 2 1 1
-2 1 4 6 -0 -1 -4 5 -3 -4 -0 -3 -1 -1 -2 -0 -1 -1 -1 -0 -1 0 -3 -3 -2 -1 -1 -1 -1 -1 -0 1 1
-5 -2 -4 2 -2 -3 -0 -0 9 -6 -0 -3 -2 -3 -2 -2 -2 -2 -2 -1 -0 -1 -2 -2 -1 -1 -2 -3 -3 -2 -2 -2 -1
-2 -1 -1 -4 -6 1 -6 -0 6 -2 -1 -2 -2 -2 -2 -2 -1 -1 -1 -1 -0 -0 -1 0 1 0 0 2 1 0 -1 -3 -3
-0 1 -1 -5 1 4 1 -2 1 1 -1 -2 -1 -2 -2 -2 -2 -1 0 0 1 -0 -2 -1 -1 -1 -0 -0 -1 -1 -0 1 2
2 7 -6 -7 -3 -1 2 2 -1 0 -2 -2 -2 -1 -1 -2 -1 -0 -1 -1 -1 -2 -2 -2 -2 -2 -1 -2 -1 -1 -1 -0 -0
-0 -1 1 -1 -3 2 2 0 -1 -0 -2 -1 -3 -2 -2 -4 -1 -1 -1 -1 -1 -3 -2 -2 -1 -0 -1 -2 -2 -3 -2 -2 -3
3 -3 7 1 1 -2 1 0 -1 -1 -2 -2 -3 -2 -4 -2 -1 -2 -2 -2 -0 1 -1 -1 -2 -2 -1 -2 -2 -2 -2 -3 -3
1 1 -5 3 -0 -1 1 0 0 -1 -1 -2 -2 -3 -4 -2 -3 -2 -2 -2 -1 -3 -3 -4 -3 -2 -2 -3 -3 -2 -2 -2 -1
-7 2 2 0 -3 0 1 2 -0 -1 -2 -2 -4 -5 -6 -2 -2 -3 0 0 -1 -2 0 -2 -2 -2 -2 -2 -2 -2 -2 -2 -2
-2 -3 0 1 -3 1 0 2 -0 -2 -2 -2 -3 -4 -5 -3 -3 -2 -2 -1 -1 -1 -1 -2 -0 -2 -3 -3 -3 -2 -2 -2 -3
-3 -2 4 -2 -1 1 1 3 -2 -1 -1 -1 -3 -6 -4 -2 -2 -3 -2 -1 -1 -2 -2 -3 -4 -2 -0 0 -1 -2 -3 -4 -6
-2 1 3 -1 -1 2 2 1 -1 -0 -2 -1 -2 -5 1 -3 -1 -1 -1 -1 -0 -3 -3 -3 -5 -2 -4 -2 -2 -3 -4 -5 -5
-0 1 2 -1 -1 2 1 0 -0 -1 -3 -0 -4 -5 -2 -4 4 0 1 -2 -1 -3 -4 -2 -4 -5 -6 -5 -3 -4 -3 -5 -4
1 1 2 -1 -0 1 1 2 -1 -1 -2 -2 -4 -3 -4 -6 -6 -3 4 4 3 -0 -4 -4 -4 -5 -4 -5 -3 -6 -6 -6 -6
-0 1 2 -1 -1 1 2 1 -1 -1 -3 -2 -3 -2 -2 -2 -6 -6 -2 -1 -2 6 3 -4 -6 -4 -6 -5 -3 -5 -7 -7 -7
Height
3153 3154 3154 3156 3155 3156 3159 3158 3157 3158 3159 3158 3159 3158 3158 3158 3158 3157 3157 3157 3157 3157 3157 3157 3157 3157 3157 3157 3157 3156 3157 3157 3157
3152 3152 3153 3155 3154 3156 3158 3158 3157 3157 3158 3158 3158 3157 3157 3157 3156 3156 3155 3155 3155 3155 3155 3155 3154 3155 3155 3155 3155 3155 3155 3155 3155
3151 3151 3152 3152 3153 3155 3156 3156 3156 3157 3157 3158 3157 3157 3156 3155 3155 3154 3153 3152 3153 3153 3153 3152 3152 3151 3151 3151 3152 3152 3152 3153 3153
3150 3150 3150 3151 3153 3155 3156 3155 3155 3155 3156 3156 3156 3155 3154 3153 3152 3151 3150 3149 3150 3150 3149 3149 3148 3148 3148 3148 3148 3148 3148 3149 3148
3148 3149 3150 3150 3153 3153 3153 3153 3153 3153 3153 3154 3154 3153 3151 3150 3149 3148 3147 3146 3146 3146 3146 3145 3144 3144 3144 3144 3144 3144 3144 3144 3144
3147 3148 3148 3149 3152 3152 3152 3152 3150 3151 3151 3151 3152 3151 3149 3147 3146 3145 3144 3143 3142 3142 3141 3141 3140 3140 3140 3140 3139 3139 3139 3139 3138
3145 3145 3147 3148 3149 3150 3150 3149 3148 3148 3148 3149 3149 3148 3147 3145 3144 3143 3141 3139 3138 3137 3137 3136 3135 3135 3134 3134 3133 3133 3133 3132 3132
3143 3143 3145 3147 3148 3147 3148 3148 3146 3145 3146 3147 3146 3146 3145 3143 3141 3139 3138 3136 3135 3134 3134 3132 3131 3130 3130 3129 3128 3127 3126 3126 3125
3140 3140 3143 3144 3146 3146 3145 3146 3145 3143 3143 3144 3144 3143 3141 3139 3138 3136 3134 3132 3131 3131 3130 3128 3127 3126 3125 3124 3122 3122 3121 3119 3118
3137 3138 3140 3141 3143 3144 3143 3143 3142 3141 3140 3141 3140 3139 3138 3136 3134 3131 3129 3128 3127 3126 3124 3123 3122 3121 3120 3118 3116 3115 3113 3112 3111
3134 3136 3136 3137 3139 3140 3140 3140 3139 3138 3137 3137 3137 3136 3133 3132 3129 3127 3125 3123 3122 3120 3119 3117 3116 3114 3113 3111 3108 3107 3105 3103 3102
3131 3132 3133 3132 3134 3136 3136 3136 3135 3133 3133 3133 3133 3131 3130 3127 3125 3123 3120 3118 3116 3113 3112 3110 3109 3107 3105 3103 3101 3099 3097 3095 3092
3127 3127 3129 3129 3130 3131 3132 3132 3130 3129 3129 3129 3129 3128 3126 3122 3120 3118 3116 3112 3110 3107 3105 3104 3102 3100 3098 3096 3093 3090 3088 3085 3083
3121 3124 3124 3125 3126 3127 3127 3127 3126 3125 3125 3124 3124 3123 3121 3118 3116 3114 3110 3106 3103 3101 3099 3096 3095 3092 3090 3087 3084 3081 3078 3075 3072
3116 3119 3120 3120 3121 3122 3122 3122 3121 3121 3121 3120 3119 3118 3116 3113 3112 3108 3104 3101 3098 3095 3091 3088 3086 3084 3081 3078 3075 3071 3068 3064 3060
3111 3114 3115 3115 3116 3117 3117 3117 3117 3117 3117 3116 3115 3114 3111 3109 3106 3103 3100 3096 3092 3088 3084 3079 3076 3074 3072 3067 3063 3059 3056 3052 3049
3105 3107 3109 3110 3111 3112 3112 3112 3112 3112 3112 3111 3110 3109 3108 3104 3102 3099 3095 3091 3086 3081 3076 3070 3065 3062 3060 3057 3053 3048 3044 3040 3036
3099 3102 3104 3105 3106 3106 3107 3107 3107 3107 3107 3106 3105 3103 3101 3099 3097 3094 3090 3086 3079 3073 3068 3064 3058 3053 3049 3044 3041 3036 3032 3028 3023
3094 3097 3098 3100 3100 3101 3101 3101 3101 3101 3101 3100 3099 3097 3094 3091 3090 3088 3084 3080 3075 3069 3061 3057 3051 3045 3040 3035 3029 3024 3020 3015 3010
3088 3090 3092 3093 3094 3095 3095 3096 3096 3096 3095 3093 3092 3090 3087 3084 3081 3081 3079 3075 3070 3065 3057 3051 3045 3038 3032 3026 3019 3014 3007 3000 2994